Current Version              Previous Version:    01  02  03  04  05  06  07  08  09  10  11  12  13  14  15  16  17  18  19  20  21  22  23  24  25  26  27  28  29  30  
   31  32  33  34  35  36  37  38  39  40  41  42  43  44  45  46  47  48  49  50  51  52  53  54  55  56  57  58  59  60  

[Printable]
448
ASUS44 KEWX 301802
RWRTX
SOUTH TEXAS REGIONAL WEATHER ROUNDUP
NATIONAL WEATHER SERVICE AUSTIN/SAN ANTONIO TX
1200 PM CST FRI JAN 30 2015

NOTE: "FAIR" INDICATED FEW OR NO CLOUDS BELOW 12,000 FEET WITH NO
SIGNIFICANT WEATHER AND/OR OBSTRUCTIONS TO VISIBILITY.

* - THESE STATIONS ARE NOT NWS OR FAA STATIONS...AND ARE NOT SUBJECT
    TO NWS AND FAA QUALITY CONTROL.

TXZ171-172-183>190-301900-
TEXAS HILL COUNTRY AND EDWARDS PLATEAU

CITY           SKY/WX    TMP DP  RH WIND       PRES   REMARKS
JUNCTION       MOSUNNY   51  32  48 E10       30.39F
6HR MIN TEMP:  45; 6HR MAX TEMP:  52;

*LLANO         CLOUDY    48  34  57 E7        30.47F WCI  45
BURNET         CLOUDY    48  33  56 NE8       30.44F WCI  44
*HORSESHOE BAY CLOUDY    50  33  51 NE6       30.43F WCI  48
6HR MIN TEMP:  47; 6HR MAX TEMP:  51;

*KERRVILLE     CLOUDY    54  35  49 N7        30.40F
*FREDERICKSBRG CLOUDY    50  33  53 E10       30.40F WCI  45
*ROCKSPRINGS   MOSUNNY   55  34  44 SE7       30.39F
*BOERNE STAGE  MOSUNNY   55  32  41 NE7       30.41F
*CASTROVILLE   MOSUNNY   58  34  41 E10       30.41F
HONDO          MOSUNNY   60  36  40 E13       30.39F
6HR MIN TEMP:  49; 6HR MAX TEMP:  61;

*UVALDE        MOSUNNY   58  36  44 E10       30.38F
DEL RIO        CLOUDY    58  35  42 VRB3      30.36F
6HR MIN TEMP:  54; 6HR MAX TEMP:  58;

LAUGHLIN AFB   CLOUDY    58  36  43 SE7       30.36F
6HR MIN TEMP:  53; 6HR MAX TEMP:  58;

CARRIZO SPRGS  MOSUNNY   61  37  41 NE7       30.35F
$$

TXZ173-191>194-202-209-217>225-228-301900-
CENTRAL AND SOUTH CENTRAL TEXAS

CITY           SKY/WX    TMP DP  RH WIND       PRES   REMARKS
GEORGETOWN     CLOUDY    52  36  54 NE5       30.44F
AUSTIN/BERGSTM PTSUNNY   51  36  56 NE13      30.43F
6HR MIN TEMP:  48; 6HR MAX TEMP:  52; 6HR PCP: TRACE;

AUSTIN/MABRY   PTSUNNY   52  36  54 N6        30.44F
6HR MIN TEMP:  48; 6HR MAX TEMP:  54; 6HR PCP: TRACE;

*AUSTIN/EXEC   PTSUNNY   50  36  57 N9        30.44F WCI  46
*LAGO VISTA    CLOUDY    51  35  55 E8        30.43F
6HR MIN TEMP:  46; 6HR MAX TEMP:  51;

SAN MARCOS     SUNNY     55  36  47 NE13      30.43F
NEW BRAUNFELS  SUNNY     57  37  47 NE14      30.40F
6HR MIN TEMP:  50; 6HR MAX TEMP:  57;

RANDOLPH AFB   MOSUNNY   56  36  46 NE8       30.39F
6HR MIN TEMP:  49; 6HR MAX TEMP:  56;

PT SAN ANTONIO MOSUNNY   58  37  45 E10       30.37F
6HR MIN TEMP:  51; 6HR MAX TEMP:  59;

SAN ANTONIO    CLOUDY    58  37  45 E13       30.39F
6HR MIN TEMP:  51; 6HR MAX TEMP:  58;

STINSON FIELD  PTSUNNY   56  36  47 NE12      30.38F
6HR MIN TEMP:  51; 6HR MAX TEMP:  58;

*PLEASANTON    SUNNY     58  37  45 NE12G17   30.39F
6HR MIN TEMP:  50; 6HR MAX TEMP:  59;

*LA GRANGE     MOSUNNY   53  40  61 NE7       30.41F
*GIDDINGS      MOSUNNY   54  37  53 NE8       30.45F
6HR MIN TEMP:  47; 6HR MAX TEMP:  54;

*GONZALES      NOT AVBL
$$

TXZ163>164-176>182-195>201-210>213-226-227-235-301900-
SOUTHEAST TEXAS

CITY           SKY/WX    TMP DP  RH WIND       PRES   REMARKS
COLLEGE STN    MOSUNNY   52  35  52 NE9       30.43F
6HR MIN TEMP:  47; 6HR MAX TEMP:  53;

*BRYAN         MOSUNNY   52  35  52 NE8       30.45F
*CALDWELL      MOSUNNY   52  34  50 NE7       30.47F
*CROCKETT      MOSUNNY   54  36  50 E7        30.48F
*BRENHAM       MOSUNNY   54  38  56 NE7       30.44F
HUNTSVILLE     PTSUNNY   51  34  52 E8        30.43F
6HR MIN TEMP:  44; 6HR MAX TEMP:  52;

CONROE         PTSUNNY   53  36  52 N7        30.43F
6HR MIN TEMP:  47; 6HR MAX TEMP:  53;

HOUSTON BUSH   PTSUNNY   58  39  49 NE10      30.41F
6HR MIN TEMP:  50; 6HR MAX TEMP:  59;

HOUSTON HOBBY  MOSUNNY   58  41  53 NE12G18   30.40F
6HR MIN TEMP:  51; 6HR MAX TEMP:  58;

*HOUSTON SW AP MOSUNNY   57  43  59 N8        30.41F
PEARLAND       MOSUNNY   59  41  51 NE17      30.41F
6HR MIN TEMP:  53; 6HR MAX TEMP:  59;

HOUSTON HOOKS  MOSUNNY   58  37  45 NE9       30.41F
6HR MIN TEMP:  49; 6HR MAX TEMP:  58;

ELLINGTON FLD  PTSUNNY   59  41  51 NE12      30.41F
SUGAR LAND     MOSUNNY   57  40  52 NE9       30.40F
6HR MIN TEMP:  52; 6HR MAX TEMP:  58;

*HOUSTON EXEC  MOSUNNY   55  37  50 NE9       30.42F
*CLEVELAND MUN MOSUNNY   54  39  58 NE3       30.44F
*WHARTON       PTSUNNY   58  44  59 N9        30.41S
*COLUMBUS      FAIR      54  39  57 NE8       30.42S
$$

TXZ214>216-236>238-301900-
THE UPPER TEXAS COAST

CITY           SKY/WX    TMP DP  RH WIND       PRES   REMARKS
*ORANGE        MOSUNNY   54  36  50 NE10      30.43F
6HR MIN TEMP:  47; 6HR MAX TEMP:  54;

PORT ARTHUR    MOSUNNY   57  38  48 NE12      30.40F
6HR MIN TEMP:  49; 6HR MAX TEMP:  57;

GALVESTON      SUNNY     57  45  64 NE14      30.40F
6HR MIN TEMP:  53; 6HR MAX TEMP:  57;

ANGLETON       MOSUNNY   58  44  60 NE12G21   30.38F
6HR MIN TEMP:  51; 6HR MAX TEMP:  58;

*BAY CITY      CLOUDY    61  47  61 NE12      30.38F
PALACIOS       MOSUNNY   61  45  55 NE12      30.38F
6HR MIN TEMP:  51; 6HR MAX TEMP:  62;

$$

TXZ229>234-239>247-301900-
TEXAS COASTAL BEND AND RIO GRANDE PLAINS

CITY           SKY/WX    TMP DP  RH WIND       PRES   REMARKS
VICTORIA       PTSUNNY   61  43  51 NE9       30.40F
6HR MIN TEMP:  51; 6HR MAX TEMP:  61;

*BEEVILLE      MOSUNNY   64  43  46 NE10      30.37F
6HR MIN TEMP:  52; 6HR MAX TEMP:  64;

ROCKPORT       SUNNY     64  46  52 NE13      30.37F
6HR MIN TEMP:  54; 6HR MAX TEMP:  64;

*PORT ARANSAS  MOSUNNY   61  49  64 NE18G24   30.37F
*PORT LAVACA   PTSUNNY   57  45  63 NE12G17   30.40F
6HR MIN TEMP:  50; 6HR MAX TEMP:  57;

*INGLESIDE     SUNNY     63  44  50 NE14G21   30.37F
CORPUS CHRISTI PTSUNNY   65  47  52 NE16G26   30.36F
6HR MIN TEMP:  55; 6HR MAX TEMP:  65;

CORPUS NAS     MOSUNNY   63  49  60 NE20      30.36F
6HR MIN TEMP:  55; 6HR MAX TEMP:  64;

*ROBSTOWN      SUNNY     65  46  50 E15       30.37F
ALICE          SUNNY     67  44  43 E13       30.35F
6HR MIN TEMP:  56; 6HR MAX TEMP:  67;

KINGSVILLE NAS PTSUNNY   66  49  54 E15       30.35F
6HR MIN TEMP:  56; 6HR MAX TEMP:  66;

COTULLA        NOT AVBL
*FAITH RANCH   MOSUNNY   61  37  41 NE13G18   30.36F
LAREDO         MOSUNNY   67  45  45 E15       30.33F
6HR MIN TEMP:  56; 6HR MAX TEMP:  67;

$$

TXZ248>255-301900-
DEEP SOUTH TEXAS

CITY           SKY/WX    TMP DP  RH WIND       PRES   REMARKS
BROWNSVILLE    CLOUDY    70  62  76 NE12      30.30F
6HR MIN TEMP:  59; 6HR MAX TEMP:  72;

PORT ISABEL    MOSUNNY   71  61  70 NE16      30.29F
6HR MIN TEMP:  62; 6HR MAX TEMP:  71;

*SOUTH PADRE   PTSUNNY   64  63  94 NE10      30.30F
HARLINGEN      PTSUNNY   72  61  68 NE18      30.29F
6HR MIN TEMP:  59; 6HR MAX TEMP:  72;

*HEBBRONVILLE  SUNNY     64  44  47 E15       30.33F
MCALLEN        MOSUNNY   71  59  65 NE14      30.31F
6HR MIN TEMP:  62; 6HR MAX TEMP:  71;

*WESLACO       CLOUDY    67  58  70 NE10G16   30.32F
FALFURRIAS     SUNNY     66  46  48 E13G21    30.34F
6HR MIN TEMP:  57; 6HR MAX TEMP:  66;

EDINBURG       CLOUDY    71  55  57 NE14      30.32F
*ZAPATA        MOSUNNY   69  50  49 E14       30.31F
$$

TXZ213>215-236>238-242>244-246-247-251-254-255-301900-
CMAN STATIONS

STATION/POSITION TIME  TEMP    WIND        PRES    WAVE
                       AIR SEA DIR/SP/G            HT/PER
                 (UTC) (F)     (DEG/KT/KT) (MB)    (FT/S)
SABINE PASS      1722   51 56   40/ 14/ 19 1030.0
SEA RIM ST PARK  1700   51      30/ 15/ 19 1030.4
NORTH JETTY/GLS  1700   53 58   80/ 14/ 17   N/A